PulseSat

PulseSat

GSAT0210 (PRN E01)

Last updated on Jan. 16, 2019, 2:58 a.m. UTC

1 41550U 16030B   19015.07018918 -.00000027  00000-0  00000+0 0  9994
2 41550  56.7087 296.1724 0002697 286.3376  73.6694  1.70474186 16448
UTC
Height (km)
Latitude
Longitude
Inclination
Orbital Period

Next 30 passes for location: Hong Kong

Rise time Rise Azimuth (degrees) Set time Set Azimuth (degrees) Duration Max altitude (degrees)

No matching passes for this satellites

PulseSat

PulseSat is the new satellites software and hardware trackering solution by Pulsely.
Satellite Two Line Element Set source: US Air Force Space Command

Download PulseSat for iOS
© 2017 Pulsely Limited